Location: Borealis Mine
(38.3824°N, 118.7610°W)
Time: 18:06:25
(UTC+00:00)

Meteor 1-27 Rocket - Pass Details

Date: 18 September 2020
Orbit: 830 x 910 km, 81.3° (Epoch: 19 October)

Event Time Altitude Azimuth Distance (km) Brightness Sun altitude
Rises 12:14:54 0° 182° (S) 3,513 6.7 -17.2°
Reaches altitude 10° 12:17:21 10° 180° (S) 2,581 6.1 -16.7°
Maximum altitude 12:23:14 74° 97° (E) 946 4.1 -15.6°
Drops below altitude 10° 12:29:10 10° 13° (NNE) 2,597 6.6 -14.5°
Sets 12:31:38 0° 12° (NNE) 3,537 7.3 -14.0°
